Weather History for Kingston, Jamaica

Change the Weather History Date:

Tuesday, April 12, 2011

  Actual Average Record
Temperature  
Mean Temperature 80 °F -  
Max Temperature 88 °F 85 °F 89 °F (2007)
Min Temperature 73 °F 76 °F 75 °F (2002)
Cooling Degree Days 16    
Growing Degree Days 30 (Base 50)    
Moisture  
Dew Point 62 °F    
Average Humidity 56    
Maximum Humidity 65    
Minimum Humidity 43    
Precipitation  
Precipitation 0.00 in - - ()
Sea Level Pressure  
Sea Level Pressure 29.96 in    
Wind  
Wind Speed 4 mph ()    
Max Wind Speed 13 mph    
Max Gust Speed -    
Visibility 6.5 miles    
Events      
Averages and records for this station are not official NWS values.
T = Trace of Precipitation, MM = Missing Value Source: Averaged Metar Reports

Daily Weather History Graph

Daily Weather History Graph

Search for Another Location

Airport:

Trip Planner

Search our weather history database for the weather conditions in past years. The results will help you decide how hot, cold, wet, or windy it might be!

Date:

Astronomy

Apr. 12, 2011 Rise Set
Actual Time 5:53 AM EST 6:22 PM EST
Civil Twilight 5:31 AM EST 6:45 PM EST
Nautical Twilight 5:05 AM EST 7:10 PM EST
Astronomical Twilight 4:39 AM EST 7:36 PM EST
Moon 1:05 PM EST (4/12) 1:21 AM EST (4/12)
Length of Visible Light 13h 13m
Length of Day
12h 29m
Waxing Gibbous, 63% of the Moon is Illuminated
Apr 12
Waxing Gibbous
Apr 17
Full
Apr 24
Last Quarter
May 3
New
May 10
First Quarter

Hourly Weather History & Observations

Time (EST) Temp. Heat Index Dew Point Humidity Pressure Visibility Wind Dir Wind Speed Gust Speed Precip Events Conditions
12:00 AM 77.0 °F - 62.6 °F 61% 29.98 in 6.2 mi SSE 2.3 mph - N/A   Partly Cloudy
1:00 AM 76 °F - 60 °F 48% 29.97 in 12 mi North 5.8 mph - -   Haze
1:00 AM 75.2 °F - 60.8 °F 61% 29.95 in 6.2 mi North 5.8 mph - N/A   Partly Cloudy
2:00 AM 75.2 °F - 60.8 °F 61% 29.95 in 6.2 mi North 4.6 mph - N/A   Partly Cloudy
3:00 AM 75.2 °F - 60.8 °F 61% 29.92 in 6.2 mi North 4.6 mph - N/A   Partly Cloudy
4:00 AM 75 °F - 63 °F 57% 29.94 in 12 mi East 4.6 mph - -   Haze
4:00 AM 75.2 °F - 62.6 °F 65% 29.92 in 6.2 mi East 4.6 mph - N/A   Partly Cloudy
5:00 AM 75.2 °F - 62.6 °F 65% 29.95 in 6.2 mi East 4.6 mph - N/A   Partly Cloudy
6:00 AM 75.2 °F - 62.6 °F 65% 29.98 in 6.2 mi NNE 2.3 mph - N/A   Partly Cloudy
7:00 AM 77 °F - 61 °F 48% 29.97 in 4 mi NNE 2.3 mph - -   Haze
7:00 AM 77.0 °F - 60.8 °F 57% 29.95 in 6.2 mi NNE 2.3 mph - N/A   Partly Cloudy
8:00 AM 78.8 °F - 60.8 °F 54% 29.98 in 6.2 mi NNW 2.3 mph - N/A   Scattered Clouds
9:00 AM 77.0 °F - 62.6 °F 61% 29.98 in 6.2 mi NW 3.5 mph - N/A   Scattered Clouds
10:00 AM 80 °F - 62 °F 44% 30.00 in 4 mi NW 4.6 mph - -   Haze
10:00 AM 80.6 °F 81.8 °F 62.6 °F 54% 29.98 in 6.2 mi NW 4.6 mph - N/A   Scattered Clouds
11:00 AM 82.4 °F 82.5 °F 59.0 °F 45% 29.98 in 6.2 mi South 6.9 mph - N/A   Partly Cloudy
12:00 PM 82.4 °F 83.4 °F 62.6 °F 51% 29.98 in 6.2 mi South 9.2 mph - N/A   Scattered Clouds
1:00 PM 81 °F - 64 °F 46% 29.97 in 3 mi SSE 9.2 mph - -   Partly Cloudy
1:00 PM 80.6 °F 82.3 °F 64.4 °F 58% 29.95 in 6.2 mi SSE 9.2 mph - N/A   Scattered Clouds
2:00 PM 78.8 °F - 64.4 °F 61% 29.95 in 6.2 mi ESE 8.1 mph - N/A   Mostly Cloudy
3:00 PM 77.0 °F - 64.4 °F 65% 29.92 in 6.2 mi ENE 10.4 mph - N/A   Mostly Cloudy
4:00 PM 78 °F - 63 °F 51% 29.93 in 15 mi East 5.8 mph - -   Haze
4:00 PM 78.8 °F - 62.6 °F 57% 29.92 in 6.2 mi East 5.8 mph - N/A   Mostly Cloudy
5:00 PM 78.8 °F - 59.0 °F 51% 29.92 in 6.2 mi ESE 3.5 mph - N/A   Mostly Cloudy
6:00 PM 78.8 °F - 60.8 °F 54% 29.92 in 6.2 mi SSW 2.3 mph - N/A   Scattered Clouds
7:00 PM 77 °F - - % 29.95 in 4 mi North 4.6 mph - -   Haze
7:00 PM 78.8 °F - 62.6 °F 57% 29.95 in 6.2 mi ESE 12.7 mph - N/A   Scattered Clouds
8:00 PM 78.8 °F - 62.6 °F 57% 29.98 in 6.2 mi ESE 9.2 mph - N/A   Partly Cloudy
9:00 PM 77.0 °F - 60.8 °F 57% 29.98 in 6.2 mi NW 4.6 mph - N/A   Scattered Clouds
10:00 PM 77 °F - 59 °F 43% 29.99 in 4 mi North 1.2 mph - -   Haze
10:00 PM 77.0 °F - 59.0 °F 54% 29.98 in 6.2 mi North 1.2 mph - N/A   Scattered Clouds
11:00 PM 77.0 °F - 62.6 °F 61% 29.98 in 6.2 mi North 2.3 mph - N/A   Scattered Clouds